Regional Weather Roundup
Issued by NWS Cleveland, OH

Home | Current Version | Previous Version | Graphics & Text | Print | Product List | Glossary On
Versions: 1 2 3 4 5 6 7 8 9 10 11 12 13 14 15 16 17 18 19 20 21 22 23 24 25 26 27 28 29 30 31 32 33 34 35 36 37 38 39 40 41 42 43 44 45 46 47 48 49 50
000
ASUS41 KCLE 240810
RWRCLE
OHIO REGIONAL WEATHER ROUNDUP
NATIONAL WEATHER SERVICE CLEVELAND, OH
300 AM EST TUE JAN 24 2017

NOTE: "FAIR" INDICATES FEW OR NO CLOUDS BELOW 12,000 FEET WITH NO
SIGNIFICANT WEATHER AND/OR OBSTRUCTIONS TO VISIBILITY.

OHZ001>008-015>018-024>027-034-035-043-044-240900-
   NORTHWEST OHIO

CITY           SKY/WX    TMP DP  RH WIND       PRES   REMARKS
DEFIANCE       CLOUDY    40  38  93 N6        29.72R
FINDLAY        LGT RAIN  38  34  85 NE8       29.69S
TOLEDO EXPRESS LGT RAIN  38  38 100 CALM      29.71S
TOLEDO EXEC    CLOUDY    38  37  97 NE6       29.72S
LIMA           CLOUDY    40  32  73 N7        29.69R HAZE
$$

OHZ009>014-019>023-028>033-038-089-240900-
   NORTHEAST OHIO

CITY           SKY/WX    TMP DP  RH WIND       PRES   REMARKS
CLE-HOPKINS    LGT RAIN  38  35  89 NE6       29.68R
CLE-LAKEFRONT  LGT RAIN  36  35  96 NE13      29.67R FOG
CUY CO. ARPT   NOT AVBL
LORAIN-ELYRIA  LGT RAIN  37  34  89 N5        29.67R
ASHTABULA      CLOUDY    36  36 100 N3        29.65S FOG
AKRON-CANTON   CLOUDY    39  36  89 NW3       29.64R
WOOSTER        LGT RAIN  39  37  92 W5        29.65R
MANSFIELD      LGT RAIN  37  37 100 NW3       29.65R
YOUNGSTOWN     LGT RAIN  38  37  97 W3        29.62S FOG
$$

OHZ042-051>053-060>062-070>072-077>081-240900-
  SOUTHWEST OHIO

CITY           SKY/WX    TMP DP  RH WIND       PRES   REMARKS
CINC-COVINGTON CLOUDY    41  39  93 W15       29.74R
CINC-LUNKEN    CLOUDY    43  41  93 W8G17     29.75R
HAMILTON       CLOUDY    42  42 100 W8        29.75R FOG
DAYTON         FOG       42  41  96 NW12      29.71R VSB 1/2
WRIGHT-PAT AFB CLOUDY    42  42 100 CALM      29.70R
DAYTON GENERAL CLOUDY    42  41  96 W8        29.71R FOG
WILMINGTON     CLOUDY    40  40 100 NW10      29.69R
$$

OHZ036-037-039>041-045>050-054>059-063>069-073>076-082>088-240900-
  CENTRAL AND SOUTHEAST OHIO

CITY           SKY/WX    TMP DP  RH WIND       PRES   REMARKS
COLUMBUS       LGT RAIN  41  41 100 N8        29.66R
OSU AIRPORT    CLOUDY    40  39  97 NW9       29.67R
BOLTON FIELD   CLOUDY    40  39  99 NW6       29.68R
RICKENBACK AFB LGT RAIN  40  40 100 NW8       29.67R
NEWARK         LGT RAIN  40  37  89 NW3       29.65S
MARION         LGT RAIN  38  36  92 NW10      29.68R FOG
LANCASTER      LGT RAIN  42  40  92 NW3       29.67R FOG
ZANESVILLE     CLOUDY    39  36  89 NW3       29.64R
NEW PHILLY     NOT AVBL
$$



USA.gov is the U.S. government's official web portal to all federal, state and local government web resources and services.